Regional Weather Roundup
Issued by NWS

Home | Current Version | Previous Version | Graphics & Text | Print | Product List | Glossary On
Versions: 1 2 3 4 5 6 7 8 9 10 11 12 13 14 15 16 17 18 19 20 21 22 23 24 25 26 27 28 29 30 31 32 33 34 35 36 37 38 39 40 41 42 43 44 45 46 47
000
ASUS45 KSLC 250810
RWRUT

UTAH REGIONAL WEATHER ROUNDUP
NATIONAL WEATHER SERVICE SALT LAKE CITY UT
100 AM MST THU DEC 25 2014

UTZ001>011-023>025-250900-

NORTHERN UTAH

CITY           SKY/WX    TMP DP  RH WIND       PRES   REMARKS
BRIGHAM CITY   CLOUDY    33  31  91 CALM      29.45F
HILL AFB       LGT SNOW  34  31  87 S10       29.46R FOG     WCI  26
LOGAN          LGT SNOW  34  31  88 NW3       29.42R FOG
OGDEN          LGT SNOW  35  30  82 SE9       29.44S WCI  28
PROVO AIRPORT  CLOUDY    36  28  75 N3        29.49R
SALT LAKE CITY LGT RAIN  39  30  70 NW5       29.46R
VERNAL         CLOUDY    26  18  71 CALM      29.57F
WENDOVER       CLOUDY    36  25  64 NW10G22   29.52S WCI  28
HEBER CITY     LGT SNOW  32  32 100 S8        29.46R WCI  25
WEST JORDAN    CLOUDY    39  34  81 NW3G23    29.47R

$$

UTZ012>022-026-027-250900-

SOUTHERN/CENTRAL UTAH

CITY           SKY/WX    TMP DP  RH WIND       PRES   REMARKS
BLANDING       MOCLDY    30  16  54 CALM      29.75F
BRYCE CANYON   CLOUDY    25  14  63 SE12      29.60F WCI  14
CEDAR CITY     CLOUDY    41  19  41 S23G39    29.52F
DELTA          CLOUDY    38  20  48 S15G22    29.47R WCI  29
MILFORD        CLOUDY    36  15  42 SW10      29.54R WCI  28
MOAB/CYNLANDS  PTCLDY    31  16  54 CALM      29.59F
PRICE          CLOUDY    25  16  68 W3        29.58F
ST GEORGE      CLOUDY    30  16  55 S5        29.64F WCI  25
KANAB            N/A     30  23  74 E3        29.66F

$$

REGIONAL REPORTS     COLORADO/ARIZONA

CITY           SKY/WX    TMP DP  RH WIND       PRES   REMARKS
CRAIG, CO      CLOUDY    27  19  72 CALM      29.55F
GRAND JUNCTION CLOUDY    27  21  78 E3        29.63F
RIFLE          CLOUDY    26  16  65 E5        29.65F WCI  20
MONTROSE       CLOUDY    28  18  66 S8        29.66F WCI  20
CORTEZ         PTCLDY    30  18  60 CALM      29.70F
PAGE, AZ       CLEAR     33  18  53 SW5       29.62F HAZE    WCI  29
GRAND CANYON   CLEAR     34  12  40 SW18G30   29.68F WCI  23
KINGMAN        CLEAR     40  15  36 VRB6      29.68F
FLAGSTAFF      CLEAR     31   9  39 SW21      29.75F WCI  18

$$

REGIONAL REPORTS    NEVADA/IDAHO/WYOMING

CITY           SKY/WX    TMP DP  RH WIND       PRES   REMARKS
LAS VEGAS, NV  MOCLDY    57  30  35 S10       29.56S
ELY            LGT SNOW  27  25  92 NW14G32   29.58R FOG     WCI  16
ELKO           CLOUDY    29  19  66 NW24G41   29.63R WCI  15
POCATELLO, ID  CLOUDY    31  28  89 SW28G35   29.42S WCI  17
EVANSTON, WY   LGT SNOW  31  29  92 SW21G30   29.38F VSB 1   WCI  18
ROCK SPRINGS   CLOUDY    26  15  63 S18       29.39F WCI  13
KEMMERER       CLOUDY    32  28  86 SW8G16    29.38F WCI  25

$$


USA.gov is the U.S. government's official web portal to all federal, state and local government web resources and services.